Weather History for Logansport, IN

Change the Weather History Date:

Saturday, August 16, 2014

  Actual Average Record
Temperature  
Mean Temperature 62 °F -  
Max Temperature 77 °F 82 °F 77 °F (2014)
Min Temperature 46 °F 62 °F 46 °F (2014)
Degree Days  
Heating Degree Days 4    
Growing Degree Days 12 (Base 50)    
Moisture  
Dew Point 58 °F    
Average Humidity 83    
Maximum Humidity 94    
Minimum Humidity 65    
Precipitation  
Precipitation 0.00 in - - ()
Sea Level Pressure  
Sea Level Pressure 29.98 in    
Wind  
Wind Speed 3 mph (SSW)    
Max Wind Speed 13 mph    
Max Gust Speed -    
Visibility 9 miles    
Events      
Averages and records for this station are not official NWS values.
T = Trace of Precipitation, MM = Missing Value Source: NWS Daily Summary

Daily Weather History Graph

Daily Weather History Graph

Search for Another Location

Airport:

Trip Planner

Search our weather history database for the weather conditions in past years. The results will help you decide how hot, cold, wet, or windy it might be!

Date:

Astronomy

Aug. 16, 2014 Rise Set
Actual Time 6:56 AM EDT 8:41 PM EDT
Civil Twilight 6:27 AM EDT 9:11 PM EDT
Nautical Twilight 5:51 AM EDT 9:46 PM EDT
Astronomical Twilight 5:13 AM EDT 10:24 PM EDT
Moon No Moon Rise 1:44 PM EDT (8/16)
Length of Visible Light 14h 43m
Length of Day
13h 45m
Waning Gibbous, 59% of the Moon is Illuminated
Aug 16
Waning Gibbous
Aug 17
Last Quarter
Aug 25
New
Sep 2
First Quarter
Sep 8
Full

Hourly Weather History & Observations

Time (EDT) Temp. Dew Point Humidity Pressure Visibility Wind Dir Wind Speed Gust Speed Precip Events Conditions
12:15 AM 50.0 °F 46.4 °F 87% 30.02 in 10.0 mi Calm Calm - N/A   Clear
12:35 AM 50.0 °F 46.4 °F 87% 30.02 in 10.0 mi Calm Calm - N/A   Clear
12:55 AM 50.0 °F 46.4 °F 87% 30.02 in 10.0 mi Calm Calm - N/A   Clear
1:15 AM 50.0 °F 46.4 °F 87% 30.02 in 10.0 mi Calm Calm - N/A   Clear
1:35 AM 50.0 °F 46.4 °F 87% 30.02 in 10.0 mi Calm Calm - N/A   Clear
1:55 AM 50.0 °F 46.4 °F 87% 30.01 in 10.0 mi Calm Calm - N/A   Clear
2:15 AM 48.2 °F 46.4 °F 93% 30.01 in 10.0 mi Calm Calm - N/A   Clear
2:35 AM 48.2 °F 44.6 °F 87% 30.01 in 10.0 mi Calm Calm - N/A   Clear
2:55 AM 48.2 °F 44.6 °F 87% 30.01 in 10.0 mi Calm Calm - N/A   Clear
3:15 AM 46.4 °F 44.6 °F 93% 29.99 in 10.0 mi Calm Calm - N/A   Clear
3:35 AM 46.4 °F 44.6 °F 93% 29.98 in 10.0 mi Calm Calm - N/A   Clear
3:55 AM 46.4 °F 44.6 °F 93% 29.98 in 10.0 mi Calm Calm - N/A   Clear
4:15 AM 48.2 °F 46.4 °F 93% 29.98 in 10.0 mi Calm Calm - N/A   Clear
4:35 AM 48.2 °F 46.4 °F 93% 29.98 in 10.0 mi Calm Calm - N/A   Clear
4:55 AM 50.0 °F 46.4 °F 87% 29.98 in 10.0 mi East 3.5 mph - N/A   Clear
5:15 AM 50.0 °F 46.4 °F 87% 29.98 in 10.0 mi Calm Calm - N/A   Clear
5:35 AM 48.2 °F 46.4 °F 93% 29.99 in 10.0 mi Calm Calm - N/A   Clear
5:55 AM 48.2 °F 44.6 °F 87% 29.99 in 10.0 mi Calm Calm - N/A   Clear
6:15 AM 48.2 °F 46.4 °F 93% 29.99 in 10.0 mi Calm Calm - N/A   Clear
6:35 AM 50.0 °F 46.4 °F 87% 29.99 in 10.0 mi Calm Calm - N/A   Clear
6:55 AM 50.0 °F 46.4 °F 87% 29.99 in 10.0 mi Calm Calm - N/A   Clear
7:15 AM 50.0 °F 46.4 °F 87% 29.99 in 10.0 mi ESE 3.5 mph - N/A   Clear
7:35 AM 51.8 °F 46.4 °F 82% 29.99 in 10.0 mi SE 3.5 mph - N/A   Clear
7:55 AM 53.6 °F 50.0 °F 88% 29.98 in 10.0 mi ESE 3.5 mph - N/A   Scattered Clouds
8:15 AM 55.4 °F 50.0 °F 82% 29.98 in 10.0 mi Calm Calm - N/A   Scattered Clouds
8:35 AM 59.0 °F 51.8 °F 77% 29.98 in 10.0 mi SSE 4.6 mph - N/A   Clear
8:55 AM 60.8 °F 53.6 °F 77% 29.98 in 10.0 mi South 5.8 mph - N/A   Mostly Cloudy
9:15 AM 62.6 °F 55.4 °F 77% 29.98 in 10.0 mi South 5.8 mph - N/A   Overcast
9:35 AM 62.6 °F 55.4 °F 77% 29.98 in 10.0 mi South 5.8 mph - N/A   Overcast
9:55 AM 64.4 °F 57.2 °F 77% 29.98 in 10.0 mi SSW 5.8 mph - N/A   Overcast
10:15 AM 66.2 °F 59.0 °F 78% 29.98 in 10.0 mi SSW 8.1 mph - N/A   Overcast
10:35 AM 68.0 °F 60.8 °F 78% 29.98 in 10.0 mi SSW 12.7 mph - N/A   Overcast
10:55 AM 64.4 °F 60.8 °F 88% 29.98 in 10.0 mi SSW 9.2 mph - N/A   Overcast
11:15 AM 66.2 °F 62.6 °F 88% 29.98 in 7.0 mi SSW 8.1 mph - N/A   Overcast
11:35 AM 68.0 °F 62.6 °F 83% 29.98 in 10.0 mi South 8.1 mph - N/A   Overcast
11:55 AM 68.0 °F 62.6 °F 83% 29.99 in 10.0 mi SSW 9.2 mph - N/A   Overcast
12:15 PM 69.8 °F 62.6 °F 78% 29.98 in 10.0 mi SSW 11.5 mph - N/A   Overcast
12:35 PM 71.6 °F 64.4 °F 78% 29.98 in 10.0 mi SW 9.2 mph - N/A   Overcast
12:55 PM 71.6 °F 64.4 °F 78% 29.97 in 10.0 mi WSW 11.5 mph - N/A   Overcast
1:15 PM 73.4 °F 64.4 °F 73% 29.98 in 10.0 mi WSW 8.1 mph - N/A   Overcast
1:35 PM 73.4 °F 64.4 °F 73% 29.98 in 10.0 mi WSW 6.9 mph - N/A   Overcast
1:55 PM 73.4 °F 64.4 °F 73% 29.97 in 10.0 mi West 6.9 mph - N/A   Overcast
2:15 PM 73.4 °F 64.4 °F 73% 29.98 in 10.0 mi SW 10.4 mph - N/A   Overcast
2:35 PM 71.6 °F 64.4 °F 78% 29.98 in 10.0 mi WSW 11.5 mph - N/A   Overcast
2:55 PM 71.6 °F 64.4 °F 78% 29.97 in 10.0 mi SW 9.2 mph - N/A   Overcast
3:15 PM 71.6 °F 64.4 °F 78% 29.97 in 10.0 mi West 3.5 mph - N/A   Overcast
3:35 PM 71.6 °F 64.4 °F 78% 29.96 in 7.0 mi Calm Calm - N/A   Light Drizzle
3:55 PM 71.6 °F 66.2 °F 83% 29.96 in 7.0 mi SSW 5.8 mph - N/A   Overcast
4:15 PM 73.4 °F 66.2 °F 78% 29.96 in 10.0 mi SW 8.1 mph - N/A   Overcast
4:35 PM 75.2 °F 66.2 °F 73% 29.96 in 10.0 mi WSW 9.2 mph - N/A   Overcast
4:55 PM 77.0 °F 66.2 °F 69% 29.95 in 10.0 mi WSW 5.8 mph - N/A   Mostly Cloudy
5:15 PM 77.0 °F 64.4 °F 65% 29.95 in 10.0 mi WSW 6.9 mph - N/A   Mostly Cloudy
5:35 PM 77.0 °F 66.2 °F 69% 29.95 in 10.0 mi SW 6.9 mph - N/A   Overcast
5:55 PM 77.0 °F 66.2 °F 69% 29.95 in 10.0 mi SW 6.9 mph - N/A   Mostly Cloudy
6:15 PM 75.2 °F 64.4 °F 69% 29.95 in 10.0 mi SW 6.9 mph - N/A   Mostly Cloudy
6:35 PM 77.0 °F 64.4 °F 65% 29.95 in 10.0 mi SW 8.1 mph - N/A   Overcast
6:55 PM 75.2 °F 66.2 °F 73% 29.95 in 10.0 mi SSW 8.1 mph - N/A   Overcast
7:15 PM 73.4 °F 66.2 °F 78% 29.95 in 10.0 mi SW 9.2 mph - N/A   Overcast
7:35 PM 73.4 °F 66.2 °F 78% 29.95 in 10.0 mi SW 5.8 mph - N/A   Overcast
7:55 PM 71.6 °F 66.2 °F 83% 29.95 in 10.0 mi SW 9.2 mph - N/A   Overcast
8:15 PM 71.6 °F 66.2 °F 83% 29.95 in 10.0 mi WSW 10.4 mph - N/A   Overcast
8:35 PM 69.8 °F 66.2 °F 88% 29.95 in 10.0 mi SW 4.6 mph - N/A   Overcast
8:55 PM 69.8 °F 66.2 °F 88% 29.95 in 10.0 mi SW 5.8 mph - N/A   Overcast
9:15 PM 69.8 °F 66.2 °F 88% 29.95 in 7.0 mi Calm Calm - N/A   Overcast
9:35 PM 69.8 °F 66.2 °F 88% 29.96 in 7.0 mi South 3.5 mph - N/A   Overcast
9:55 PM 68.0 °F 66.2 °F 94% 29.96 in 5.0 mi South 3.5 mph - N/A   Overcast
10:15 PM 68.0 °F 66.2 °F 94% 29.96 in 5.0 mi South 3.5 mph - N/A   Overcast
10:35 PM 68.0 °F 66.2 °F 94% 29.97 in 5.0 mi SSW 3.5 mph - N/A   Overcast
10:55 PM 68.0 °F 66.2 °F 94% 29.97 in 5.0 mi Calm Calm - N/A   Overcast
11:15 PM 68.0 °F 66.2 °F 94% 29.97 in 5.0 mi Calm Calm - N/A   Overcast
11:35 PM 68.0 °F 64.4 °F 88% 29.97 in 5.0 mi SSE 3.5 mph - N/A   Overcast
11:55 PM 68.0 °F 66.2 °F 94% 29.98 in 7.0 mi South 4.6 mph - N/A   Overcast